星链-11341 (STARLINK-11341)

导读 | 星芒AI

STARLINK-11341 是 SpaceX 星链(Starlink)卫星互联网项目中的一颗低轨通信卫星。该卫星属于星链计划的第二批任务(5-1)部署的50颗卫星之一,于2019年11月11日由猎鹰9号火箭发射升空。它运行在约550公里高的近地轨道,旨在为全球用户提供高速互联网服务。作为星链星座的一部分,STARLINK-11341 与其他卫星协同工作,支持宽带连接,尤其服务于传统网络难以覆盖的地区。

基本信息
目录编号:
61696
目录名称:
STARLINK-11341
国际标识:
2024-195K
轨道中心:
EARTH
卫星名称:
星链-11341
卫星全名:
星链-11341 (STARLINK-11341)
卫星状态:
在轨 (已飞行411 天)
发射日期:
2024-10-30 UTC
国别 :
美国 (US)
星等 :
--
轨道信息
数据来源 国际轨道数据
星历时间: 2025-12-15T00:15:43+0800
1天前
查看轨道信息
半长轴: 6737.819km
偏心率: 0.000063
轨道倾角: 53.160°
近地点辐角 86.176°
升交点赤经 85.183°
平近点角 273.933°
近地点: 359.259km
远地点: 360.109km
周期: 91.736分钟
每日圈数: 15.697258
详细信息
固有亮度:
5
最大亮度:
2.5
卫星平台:
Starlink V1.0
覆盖范围:
全球
运营商:
太空探索技术公司
运营商所在国:
美国
制造商(研发单位):
太空探索技术公司
制造商所在国:
美国
使用方式:
暂无
卫星简介
Starlink 计划是 SpaceX 推出的全球卫星互联网项目,通过发射低轨道卫星,为全球尤其是偏远地区提供高速、低延迟的互联网服务。自 2019 年起,Starlink 已部署数千颗卫星,旨在缩小全球数字鸿沟,推动互联网普及。该项目还为军事、航空等行业提供通信支持,带来广泛经济效益。
2D轨道图
3D轨道图
轨道高度分析图
轨道倾角分析图
轨道综合分析图
查看轨道综合分析图